582  
SXUS52 KTAE 242103  
OSOTAE  
OSOTAE  
NORTH FLORIDA/SOUTH ALABAMA/SOUTHWEST GEORGIA WEATHER ROUNDUP  
NATIONAL WEATHER SERVICE TALLAHASSEE FLORIDA  
400 PM EST WED FEB 24 2021  
 
NOTE: "FAIR" INDICATES FEW OR NO CLOUDS BELOW 12,000 FEET WITH NO  
SIGNIFICANT WEATHER AND/OR OBSTRUCTIONS TO VISIBILITY.  
 
!FLZ017-115-028-034-025-242200   
..NORTH FLORIDA
 
 
 
CITY SKY/WX TMP DP RH WIND PRES REMARKS  
TALL INTL ARPT SUNNY 73 40 30 S8 30.10F  
FSU LOVE BLDG NOT AVBL  
APALACHICOLA SUNNY 65 48 54 S10 30.12F  
PERRY NOT AVBL  
CROSS CITY SUNNY N/A N/A N/A SW6 30.12S  
JACKSONVILLE MOSUNNY 77 49 37 SW9 30.08F  

 
 
!FLZ112-006-005-002-011-242200   
..FLORIDA PANHANDLE
 
 
 
CITY SKY/WX TMP DP RH WIND PRES REMARKS  
MARIANNA SUNNY 75 35 23 W8 30.08F  
BONIFAY FAIR 76 41 28 S8 30.09F  
PANAMA CITY NW FAIR 68 51 54 S12 30.11F  
TYNDALL AFB SUNNY 67 51 56 S10 30.11F  
TYND DRONE APT FAIR 69 52 55 S12 30.13S  
DE FUNIAK SPR FAIR 71 47 42 CALM 30.11S  
EGLIN AFB SUNNY 67 54 61 S10 30.11F  
DESTIN SUNNY 66 55 67 SE9 30.11F  
HURLBURT SUNNY 68 57 67 S9 30.10F  
CRESTVIEW SUNNY 74 40 29 SW12 30.10F  
PENSACOLA SUNNY 77 64 64 S13 30.11F  

 
 
!ALZ063-066-242200   
..SOUTH ALABAMA
 
 
 
CITY SKY/WX TMP DP RH WIND PRES REMARKS  
DOTHAN SUNNY 74 39 28 S9 30.11F  
OZARK CAIRNS SUNNY 76 38 25 SW9 30.08F  
FT RUCKER HELI SUNNY 75 38 26 SW9 30.08F  
RUCKER HELI 3 FAIR 73 39 29 W8 30.07F  
RUCKER HELI 2 FAIR 74 39 28 SW7 30.07F  
FLORALA APT SUNNY 75 38 26 SW8 30.09F  
ANDALUSIA PTSUNNY 77 41 27 SW8 30.07F  
TROY SUNNY 76 34 21 SW9 30.07F  
EUFALA FAIR 75 35 23 SW6 30.07F  
MOBILE MOSUNNY 72 53 51 SW12G20 30.09S  

 
 
!GAZ120>161-242200   
..SOUTHWEST AND SOUTH CENTRAL GEORGIA
 
 
 
CITY SKY/WX TMP DP RH WIND PRES REMARKS  
THOMASVILLE FAIR 73 34 23 SW6 30.11S  
BAINBRIDGE SUNNY 75 37 25 SW8 30.10S  
MOODY AFB SUNNY 75 34 22 SW10 30.09F  
VALDOSTA SUNNY 75 35 23 VRB5 30.10F  
MOULTRIE NOT AVBL  
BLAKELY SUNNY 72 36 26 S8 30.10S  
ALBANY SUNNY 78 36 21 SW10 30.11F  
TIFTON FAIR 72 38 28 W7 30.10S  
FITZGERALD FAIR 73 35 25 SW9 30.10F  
CORDELE FAIR 72 32 23 W7 30.10F  
AMERICUS NOT AVBL  
HOMERVILLE NOT AVBL  

 
 
!GMZ750-755-770-775-242200   
..COASTAL AND BUOY OBS
 
 
 
STATION/POSITION TIME TEMP WIND PRES VSBY WAVE  
AIR SEA DIR/SP/G HT/PER  
(UTC) (F) (DEG/KT/KT) (MB) (MI) (FT/S)  
KEATON BEACH 2000 63 230/ 6/ 7 1020.9F  
CEDAR KEY 2000 65 230/ 3/ 5 1021.0F  
C TOWER 2000 61 130/ 6/ 6 1020.9F  
APALACHICOLA BUO 2040 120/ 6/ 8 1021.4F  
PANAMA CITY BUOY 2040 67 70 120/ 10/ 12 1020.2F  
MOBILE BUOY NOT AVBL  
ORANGE BCH AL BU 2040 63 62 1019.9F  

 
 
 
CLICK HERE TO GO TO PREVIOUS BULLETINS.

The Nexlab FL Page
The Nexlab GA Page
The Nexlab AL Page Main Text Page